Latest Weather Observations for Gympie

IDQ60901

Issued at 11:35 pm EST Sunday 20 April 2014 (issued every 10 minutes, with the page automatically refreshed every 10 minutes)

About weather observations | Map of Brisbane area stations | Latest observations for Brisbane area | Other Formats
Station Details ID: 040093 Name: GYMPIE Lat: -26.18 Lon: 152.64 Height: 64.5 m
Data from the previous 72 hours. | See also: Recent months at Gympie
Date/Time
EST
Tmp

°C
App
Tmp
°C
Dew
Point
°C
Rel
Hum
%
Delta-T

°C
Wind Press
QNH
hPa
Press
MSL
hPa
Rain
since
9 am
mm
Dir
 
Spd
km/h
Gust
km/h
Spd
kts
Gust
kts
20/11:30pm 15.8 17.3 14.7 93 0.6 W 0 0 0 0 1019.2 - 0.0
20/11:00pm 16.2 17.8 14.9 92 0.7 CALM 0 0 0 0 1019.3 1019.1 0.0
20/10:30pm 16.5 18.0 14.7 89 1.0 W 0 0 0 0 1019.3 - 0.0
20/10:00pm 17.2 19.0 15.4 89 1.1 CALM 0 0 0 0 1019.4 1019.2 0.0
20/09:30pm 17.6 19.4 15.4 87 1.3 CALM 0 0 0 0 1019.4 - 0.0
20/09:00pm 17.8 19.5 15.2 85 1.5 CALM 0 0 0 0 1019.2 1019.0 0.0
20/08:30pm 18.9 20.8 15.8 82 1.8 CALM 0 0 0 0 1019.1 - 0.0
20/08:00pm 19.2 21.2 16.1 82 1.8 CALM 0 0 0 0 1018.8 1018.6 0.0
20/07:30pm 20.3 22.0 15.3 73 3.0 CALM 0 0 0 0 1018.4 - 0.0
20/07:00pm 21.4 23.0 15.9 71 3.3 ESE 2 4 1 2 1018.0 1017.8 0.0
20/06:30pm 22.6 23.3 16.2 67 3.9 E 7 11 4 6 1017.6 - 0.0
20/06:00pm 23.2 23.7 15.0 60 4.9 E 6 7 3 4 1017.1 1016.9 0.0
20/05:30pm 24.4 24.4 14.2 53 6.0 E 7 13 4 7 1016.6 - 0.0
20/05:00pm 26.6 26.2 9.9 35 9.3 ENE 2 6 1 3 1016.2 1016.0 0.0
20/04:30pm 27.1 26.0 9.9 34 9.6 E 6 11 3 6 1015.8 - 0.0
20/04:00pm 27.2 25.9 9.1 32 10.0 SE 6 11 3 6 1015.6 1015.4 0.0
20/03:30pm 27.4 26.9 10.6 35 9.5 S 4 9 2 5 1015.4 - 0.0
20/03:00pm 27.9 26.6 9.2 31 10.3 NNE 6 9 3 5 1015.4 1015.2 0.0
20/02:30pm 28.2 27.8 9.9 32 10.3 NW 2 6 1 3 1015.6 - 0.0
20/02:00pm 27.5 26.6 9.3 32 10.1 S 4 7 2 4 1015.7 1015.5 0.0
20/01:30pm 27.2 26.1 8.6 31 10.2 ENE 4 9 2 5 1015.8 - 0.0
20/01:00pm 27.6 26.5 9.9 33 9.9 SE 6 11 3 6 1016.1 1015.9 0.0
20/12:30pm 27.2 26.3 9.1 32 10.0 WNW 4 9 2 5 1016.5 - 0.0
20/12:00pm 26.6 26.8 13.0 43 8.0 N 4 7 2 4 1017.1 1016.9 0.0
20/11:30am 25.6 26.7 13.5 47 7.1 CALM 0 2 0 1 1017.6 - 0.0
20/11:00am 24.4 25.2 13.6 51 6.3 S 2 6 1 3 1017.9 1017.7 0.0
20/10:30am 23.3 24.5 14.8 59 5.1 ESE 2 6 1 3 1018.4 - 0.0
20/10:00am 22.3 23.9 15.9 67 3.9 ESE 2 6 1 3 1018.5 1018.3 0.0
20/09:30am 20.1 20.8 14.5 70 3.3 SSE 4 6 2 3 1018.6 - 0.0
20/09:00am 18.4 19.1 13.5 73 2.8 SSE 2 4 1 2 1018.7 1018.5 0.0
20/08:30am 16.7 16.9 13.2 80 2.0 SSE 4 6 2 3 1018.6 - 0.0
20/08:00am 15.6 16.3 13.3 86 1.3 SE 2 4 1 2 1018.5 1018.3 0.0
20/07:30am 14.0 14.4 12.4 90 0.9 ESE 2 6 1 3 1018.1 - 0.0
20/07:00am 12.0 12.5 11.5 97 0.3 CALM 0 0 0 0 1018.0 1017.8 0.0
20/06:30am 11.4 11.7 10.9 97 0.3 CALM 0 0 0 0 1017.8 - 0.0
20/06:00am 11.5 11.8 10.9 96 0.3 WNW 0 0 0 0 1017.4 1017.2 0.0
20/05:30am 11.4 11.7 10.8 96 0.3 CALM 0 0 0 0 1017.1 - 0.0
20/05:00am 11.9 12.3 11.3 96 0.3 CALM 0 0 0 0 1016.7 1016.5 0.0
20/04:30am 12.2 12.6 11.4 95 0.4 CALM 0 0 0 0 1016.3 - 0.0
20/04:00am 12.3 12.8 11.5 95 0.4 CALM 0 0 0 0 1016.1 1015.9 0.0
20/03:30am 12.3 12.7 11.4 94 0.5 CALM 0 0 0 0 1016.0 - 0.0
20/03:00am 12.7 13.3 11.9 95 0.4 CALM 0 0 0 0 1016.1 1015.9 0.0
20/02:30am 12.9 13.5 12.0 94 0.5 CALM 0 0 0 0 1016.2 - 0.0
20/02:00am 13.4 14.2 12.6 95 0.4 CALM 0 0 0 0 1016.1 1015.9 0.0
20/01:30am 13.6 14.5 12.8 95 0.4 CALM 0 0 0 0 1016.3 - 0.0
20/01:00am 13.4 14.2 12.6 95 0.4 CALM 0 4 0 2 1016.4 1016.2 0.0
20/12:30am 13.8 14.7 12.9 94 0.5 CALM 0 0 0 0 1016.6 - 0.0
20/12:00am 14.2 15.2 13.1 93 0.6 WSW 0 0 0 0 1016.7 1016.5 0.0
 
Date/Time
EST
Tmp

°C
App
Tmp
°C
Dew
Point
°C
Rel
Hum
%
Delta-T

°C
Wind Press
QNH
hPa
Press
MSL
hPa
Rain
since
9 am
mm
Dir
 
Spd
km/h
Gust
km/h
Spd
kts
Gust
kts
19/11:30pm 14.3 15.2 12.9 91 0.8 CALM 0 0 0 0 1016.6 - 0.0
19/11:00pm 14.9 15.9 13.1 89 1.0 CALM 0 0 0 0 1016.7 1016.5 0.0
19/10:30pm 15.3 16.3 13.3 88 1.1 CALM 0 0 0 0 1016.9 - 0.0
19/10:00pm 15.3 16.2 13.0 86 1.3 CALM 0 0 0 0 1016.9 1016.7 0.0
19/09:30pm 16.4 17.4 13.3 82 1.7 CALM 0 0 0 0 1016.9 - 0.0
19/09:00pm 16.1 16.3 13.0 82 1.7 N 4 6 2 3 1016.7 1016.5 0.0
19/08:30pm 17.3 18.3 13.2 77 2.3 CALM 0 4 0 2 1016.4 - 0.0
19/08:00pm 17.9 19.0 13.6 76 2.4 CALM 0 0 0 0 1016.2 1016.0 0.0
19/07:30pm 18.0 18.7 13.5 75 2.6 S 2 4 1 2 1015.8 - 0.0
19/07:00pm 20.4 21.1 12.1 59 4.6 CALM 0 0 0 0 1015.3 1015.1 0.0
19/06:30pm 22.0 22.0 12.5 54 5.4 NE 4 11 2 6 1014.8 - 0.0
19/06:00pm 22.4 22.0 11.2 49 6.2 N 4 6 2 3 1014.4 1014.2 0.0
19/05:30pm 23.8 23.5 11.5 46 6.9 N 4 4 2 2 1014.0 - 0.0
19/05:00pm 26.3 25.2 8.3 32 9.7 SE 4 4 2 2 1013.8 1013.6 0.0
19/04:30pm 26.8 26.4 8.3 31 10.0 CALM 0 0 0 0 1013.6 - 0.0
19/04:00pm 27.3 26.2 6.7 27 10.9 ESE 2 6 1 3 1013.4 1013.2 0.0
19/03:30pm 27.0 26.2 9.8 34 9.6 SSE 4 7 2 4 1013.4 - 0.0
19/03:00pm 27.2 25.8 7.1 28 10.7 ESE 4 9 2 5 1013.4 1013.2 0.0
19/02:30pm 27.3 26.3 8.7 31 10.2 SSE 4 7 2 4 1013.5 - 0.0
19/02:00pm 26.9 25.4 6.9 28 10.6 S 4 9 2 5 1013.6 1013.4 0.0
19/01:30pm 26.8 24.9 6.8 28 10.6 SW 6 11 3 6 1014.0 - 0.0
19/01:00pm 26.9 25.9 10.2 35 9.3 SSW 6 15 3 8 1014.3 1014.1 0.0
19/12:30pm 26.5 24.1 8.5 32 9.8 S 11 19 6 10 1014.7 - 0.0
19/12:00pm 26.2 24.9 9.1 34 9.4 S 6 9 3 5 1015.3 1015.1 0.0
19/11:30am 26.7 26.3 11.2 38 8.8 SE 4 9 2 5 1015.8 - 0.0
19/11:00am 25.3 25.6 12.2 44 7.5 S 2 7 1 4 1016.5 1016.3 0.0
19/10:30am 24.9 25.6 12.2 45 7.3 CALM 0 0 0 0 1016.9 - 0.0
19/10:00am 23.0 23.7 13.5 55 5.5 SW 2 4 1 2 1017.3 1017.1 0.0
19/09:30am 20.8 22.6 15.6 72 3.1 CALM 0 0 0 0 1017.5 - 0.0
19/09:00am 18.6 20.6 16.0 85 1.5 CALM 0 2 0 1 1017.8 1017.6 0.0
19/08:30am 16.4 18.0 14.8 90 0.9 CALM 0 0 0 0 1017.9 - 0.0
19/08:00am 14.6 16.0 14.3 98 0.2 CALM 0 0 0 0 1017.9 1017.7 0.0
19/07:30am 13.4 14.4 13.2 99 0.1 CALM 0 0 0 0 1017.7 - 0.0
19/07:00am 12.7 13.5 12.5 99 0.1 CALM 0 0 0 0 1017.5 1017.3 0.0
19/06:30am 12.6 13.3 12.3 98 0.2 CALM 0 0 0 0 1017.2 - 0.0
19/06:00am 12.8 13.6 12.5 98 0.2 CALM 0 0 0 0 1017.1 1016.9 0.0
19/05:30am 12.9 13.7 12.6 98 0.2 CALM 0 0 0 0 1016.9 - 0.0
19/05:00am 13.0 13.8 12.7 98 0.2 CALM 0 0 0 0 1016.6 1016.4 0.0
19/04:30am 12.9 13.7 12.6 98 0.2 CALM 0 0 0 0 1016.6 - 0.0
19/04:00am 13.2 14.0 12.6 96 0.3 CALM 0 0 0 0 1016.4 1016.2 0.0
19/03:30am 13.8 14.8 13.2 96 0.3 CALM 0 0 0 0 1016.2 - 0.0
19/03:00am 13.9 14.9 13.3 96 0.3 CALM 0 0 0 0 1016.3 1016.1 0.0
19/02:30am 14.4 15.6 13.8 96 0.3 CALM 0 0 0 0 1016.3 - 0.0
19/02:00am 14.9 16.3 14.4 97 0.3 CALM 0 0 0 0 1016.3 1016.1 0.0
19/01:30am 15.0 16.4 14.4 96 0.3 CALM 0 0 0 0 1016.4 - 0.0
19/01:00am 15.3 16.8 14.7 96 0.3 CALM 0 0 0 0 1016.6 1016.4 0.0
19/12:30am 15.9 17.6 15.3 96 0.3 CALM 0 0 0 0 1016.7 - 0.0
19/12:00am 15.8 17.4 15.0 95 0.5 CALM 0 0 0 0 1016.8 1016.6 0.0
 
Date/Time
EST
Tmp

°C
App
Tmp
°C
Dew
Point
°C
Rel
Hum
%
Delta-T

°C
Wind Press
QNH
hPa
Press
MSL
hPa
Rain
since
9 am
mm
Dir
 
Spd
km/h
Gust
km/h
Spd
kts
Gust
kts
18/11:30pm 15.9 17.5 14.9 94 0.6 CALM 0 0 0 0 1016.9 - 0.0
18/11:00pm 16.3 18.0 15.2 93 0.6 CALM 0 0 0 0 1016.9 1016.7 0.0
18/10:30pm 16.9 18.8 15.8 93 0.6 CALM 0 0 0 0 1016.9 - 0.0
18/10:00pm 17.1 18.5 15.4 90 1.0 WSW 2 2 1 1 1016.9 1016.7 0.0
18/09:30pm 17.6 19.5 15.8 89 1.1 CALM 0 0 0 0 1016.8 - 0.0
18/09:00pm 18.2 20.2 16.0 87 1.3 CALM 0 0 0 0 1016.6 1016.4 0.0
18/08:30pm 19.0 21.2 16.6 86 1.4 CALM 0 0 0 0 1016.5 - 0.0
18/08:00pm 20.0 22.3 16.8 82 1.9 CALM 0 0 0 0 1016.3 1016.1 0.0
18/07:30pm 20.9 23.3 16.9 78 2.4 CALM 0 0 0 0 1016.0 - 0.0
18/07:00pm 21.7 23.8 17.3 76 2.7 ENE 2 6 1 3 1015.6 1015.4 0.0
18/06:30pm 22.1 23.3 16.8 72 3.2 E 6 7 3 4 1015.1 - 0.0
18/06:00pm 22.9 24.0 14.5 59 5.0 SE 2 4 1 2 1014.7 1014.5 0.0
18/05:30pm 24.8 25.1 11.0 42 7.8 CALM 0 0 0 0 1014.1 - 0.0
18/05:00pm 26.4 25.6 9.7 35 9.2 SE 4 6 2 3 1013.7 1013.5 0.0
18/04:30pm 27.9 27.6 10.1 33 10.0 W 2 6 1 3 1013.5 - 0.0
18/04:00pm 27.9 27.5 11.0 35 9.6 SW 4 7 2 4 1013.3 1013.1 0.0
18/03:30pm 27.9 26.5 9.7 32 10.2 WSW 7 13 4 7 1013.1 - 0.0
18/03:00pm 27.8 26.0 8.1 29 10.7 W 7 13 4 7 1013.1 1012.9 0.0
18/02:30pm 27.8 26.7 10.1 33 9.9 SW 6 11 3 6 1013.4 - 0.0
18/02:00pm 27.5 27.0 10.7 35 9.5 ENE 4 11 2 6 1013.5 1013.3 0.0
18/01:30pm 26.7 26.1 11.6 39 8.6 SE 6 7 3 4 1013.8 - 0.0
18/01:00pm 27.2 27.2 12.4 40 8.6 E 4 9 2 5 1014.2 1014.0 0.0
18/12:30pm 27.3 28.2 14.0 44 7.9 N 2 6 1 3 1014.6 - 0.0
18/12:00pm 25.8 26.1 14.6 50 6.7 ESE 6 11 3 6 1015.1 1014.9 0.0
18/11:30am 25.3 26.1 15.9 56 5.7 SE 6 9 3 5 1015.6 - 0.0
18/11:00am 24.2 26.3 17.2 65 4.3 SSE 2 6 1 3 1016.3 1016.1 0.0
18/10:30am 23.7 25.6 17.7 69 3.7 E 4 7 2 4 1016.8 - 0.0
18/10:00am 22.4 24.5 17.1 72 3.3 S 2 6 1 3 1017.2 1017.0 0.0
18/09:30am 20.9 23.3 17.1 79 2.3 CALM 0 0 0 0 1017.5 - 0.0
18/09:00am 19.5 22.1 17.6 89 1.2 CALM 0 4 0 2 1017.5 1017.3 0.0
18/08:30am 16.8 18.5 16.3 97 0.3 ESE 2 4 1 2 1017.5 - 0.0
18/08:00am 16.3 17.9 16.0 98 0.2 SSE 2 4 1 2 1017.4 1017.2 0.0
18/07:30am 15.5 17.2 15.2 98 0.2 CALM 0 0 0 0 1017.3 - 0.0
18/07:00am 15.3 16.9 15.0 98 0.2 CALM 0 0 0 0 1017.0 1016.8 0.0
18/06:30am 15.2 16.8 14.9 98 0.2 CALM 0 0 0 0 1017.0 - 0.0
18/06:00am 14.9 16.4 14.6 98 0.2 CALM 0 0 0 0 1016.9 1016.7 0.0
18/05:30am 14.3 15.5 13.8 97 0.3 CALM 0 0 0 0 1016.7 - 0.0
18/05:00am 14.9 16.3 14.4 97 0.3 CALM 0 0 0 0 1016.6 1016.4 0.0
18/04:30am 15.1 16.6 14.6 97 0.3 CALM 0 0 0 0 1016.6 - 0.0
18/04:00am 15.1 16.6 14.6 97 0.3 CALM 0 0 0 0 1016.5 1016.3 0.0
18/03:30am 15.2 16.7 14.7 97 0.3 CALM 0 0 0 0 1016.4 - 0.0
18/03:00am 15.1 16.5 14.5 96 0.3 CALM 0 0 0 0 1016.5 1016.3 0.0
18/02:30am 15.7 17.4 15.1 96 0.3 CALM 0 0 0 0 1016.6 - 0.0
18/02:00am 15.9 17.6 15.3 96 0.3 CALM 0 0 0 0 1016.7 1016.5 0.0
18/01:30am 16.2 18.0 15.4 95 0.5 CALM 0 0 0 0 1016.9 - 0.0
18/01:00am 16.7 18.6 15.7 94 0.6 CALM 0 0 0 0 1017.4 1017.2 0.0
18/12:30am 16.8 18.7 15.8 94 0.6 CALM 0 0 0 0 1017.4 - 0.0
18/12:00am 17.0 19.0 16.0 94 0.6 CALM 0 0 0 0 1017.8 1017.6 0.0

Latest Capital City Observations: Canberra | Sydney | Melbourne | Brisbane | Adelaide | Perth | Hobart | Darwin

Other Formats:

Comma delimited format used in spreadsheet applications
http://www.bom.gov.au/fwo/IDQ60901/IDQ60901.94566.axf

JavaScript Object Notation format (JSON) in row-major order
http://www.bom.gov.au/fwo/IDQ60901/IDQ60901.94566.json